Time,TemperatureF,DewpointF,PressureIn,WindDirection,WindDirectionDegrees,WindSpeedMPH,WindSpeedGustMPH,Humidity,HourlyPrecipIn,Conditions,Clouds,dailyrainin,SoftwareType,DateUTC
2013-02-09 00:10:00,41.5,41.0,30.23,East,90,0.0,-999.0,98,-99.99,,,0.00,Acu-Link.com,2013-02-09 08:10:00,
2013-02-09 00:26:00,41.4,40.9,30.22,South,180,0.0,-999.0,98,-99.99,,,0.00,Acu-Link.com,2013-02-09 08:26:00,
2013-02-09 00:41:00,41.2,40.7,30.25,South,180,0.0,-999.0,98,-99.99,,,0.00,Acu-Link.com,2013-02-09 08:41:00,
2013-02-09 00:56:00,41.2,40.7,30.24,SSE,157,0.0,-999.0,98,-99.99,,,0.00,Acu-Link.com,2013-02-09 08:56:00,
2013-02-09 01:11:00,40.8,40.3,30.24,South,180,1.7,-999.0,98,-99.99,,,0.00,Acu-Link.com,2013-02-09 09:11:00,
2013-02-09 01:27:00,40.5,40.0,30.25,South,180,1.7,-999.0,98,-99.99,,,0.00,Acu-Link.com,2013-02-09 09:27:00,
2013-02-09 01:42:00,40.5,40.0,30.25,South,180,0.0,-999.0,98,-99.99,,,0.00,Acu-Link.com,2013-02-09 09:42:00,
2013-02-09 01:57:00,40.6,40.1,30.24,SSW,202,0.0,-999.0,98,-99.99,,,0.00,Acu-Link.com,2013-02-09 09:57:00,
2013-02-09 02:13:00,40.8,40.3,30.24,WSW,247,1.7,-999.0,98,-99.99,,,0.00,Acu-Link.com,2013-02-09 10:13:00,
2013-02-09 02:28:00,40.8,40.3,30.24,WSW,247,0.0,-999.0,98,-99.99,,,0.00,Acu-Link.com,2013-02-09 10:28:00,
2013-02-09 02:44:00,40.5,40.0,30.24,South,180,1.7,-999.0,98,-99.99,,,0.00,Acu-Link.com,2013-02-09 10:44:00,
2013-02-09 02:59:00,40.3,39.8,30.23,South,180,1.7,-999.0,98,-99.99,,,0.00,Acu-Link.com,2013-02-09 10:59:00,
2013-02-09 03:14:00,40.1,39.6,30.23,South,180,0.0,-999.0,98,-99.99,,,0.00,Acu-Link.com,2013-02-09 11:14:00,
2013-02-09 03:30:00,39.9,39.4,30.23,South,180,0.0,-999.0,98,-99.99,,,0.00,Acu-Link.com,2013-02-09 11:30:00,
2013-02-09 03:45:00,39.9,39.4,30.23,South,180,0.0,-999.0,98,-99.99,,,0.00,Acu-Link.com,2013-02-09 11:45:00,
2013-02-09 04:01:00,39.9,39.4,30.23,South,180,0.0,-999.0,98,-99.99,,,0.00,Acu-Link.com,2013-02-09 12:01:00,
2013-02-09 04:16:00,40.1,39.6,30.22,SE,135,0.0,-999.0,98,-99.99,,,0.01,Acu-Link.com,2013-02-09 12:16:00,
2013-02-09 04:31:00,40.3,39.8,30.22,South,180,0.0,-999.0,98,-99.99,,,0.01,Acu-Link.com,2013-02-09 12:31:00,
2013-02-09 04:47:00,40.5,40.0,30.22,South,180,0.0,-999.0,98,-99.99,,,0.01,Acu-Link.com,2013-02-09 12:47:00,
2013-02-09 05:02:00,40.6,40.1,30.23,South,180,0.0,-999.0,98,-99.99,,,0.01,Acu-Link.com,2013-02-09 13:02:00,
2013-02-09 05:17:00,40.6,40.1,30.22,East,90,0.0,-999.0,98,-99.99,,,0.01,Acu-Link.com,2013-02-09 13:17:00,
2013-02-09 05:32:00,40.6,40.1,30.24,East,90,0.0,-999.0,98,-99.99,,,0.01,Acu-Link.com,2013-02-09 13:32:00,
2013-02-09 05:48:00,40.6,40.1,30.22,East,90,0.0,-999.0,98,-99.99,,,0.01,Acu-Link.com,2013-02-09 13:48:00,
2013-02-09 06:03:00,40.6,40.1,30.24,East,90,0.0,-999.0,98,-99.99,,,0.01,Acu-Link.com,2013-02-09 14:03:00,
2013-02-09 06:18:00,40.8,40.3,30.22,East,90,0.0,-999.0,98,-99.99,,,0.01,Acu-Link.com,2013-02-09 14:18:00,
2013-02-09 06:34:00,40.8,40.3,30.23,East,90,0.0,-999.0,98,-99.99,,,0.01,Acu-Link.com,2013-02-09 14:34:00,
2013-02-09 06:49:00,40.8,40.3,30.21,East,90,0.0,-999.0,98,-99.99,,,0.01,Acu-Link.com,2013-02-09 14:49:00,
2013-02-09 07:04:00,40.8,40.3,30.21,East,90,0.0,-999.0,98,-99.99,,,0.01,Acu-Link.com,2013-02-09 15:04:00,
2013-02-09 07:20:00,40.8,40.3,30.21,East,90,0.0,-999.0,98,-99.99,,,0.01,Acu-Link.com,2013-02-09 15:20:00,
2013-02-09 07:35:00,40.8,40.3,30.21,East,90,0.0,-999.0,98,-99.99,,,0.01,Acu-Link.com,2013-02-09 15:35:00,
2013-02-09 07:50:00,40.8,40.3,30.21,East,90,0.0,-999.0,98,-99.99,,,0.01,Acu-Link.com,2013-02-09 15:50:00,
2013-02-09 08:05:00,41.0,40.5,30.22,East,90,0.0,-999.0,98,-99.99,,,0.01,Acu-Link.com,2013-02-09 16:05:00,
2013-02-09 08:21:00,41.2,40.7,30.22,East,90,0.0,-999.0,98,-99.99,,,0.01,Acu-Link.com,2013-02-09 16:21:00,
2013-02-09 08:36:00,41.4,40.9,30.21,ENE,67,0.0,-999.0,98,-99.99,,,0.01,Acu-Link.com,2013-02-09 16:36:00,
2013-02-09 08:51:00,41.5,41.0,30.24,West,270,1.7,-999.0,98,-99.99,,,0.01,Acu-Link.com,2013-02-09 16:51:00,
2013-02-09 09:07:00,41.7,41.2,30.22,West,270,2.2,-999.0,98,-99.99,,,0.01,Acu-Link.com,2013-02-09 17:07:00,
2013-02-09 09:22:00,41.9,41.4,30.21,West,270,2.7,-999.0,98,-99.99,,,0.01,Acu-Link.com,2013-02-09 17:22:00,
2013-02-09 09:37:00,42.1,41.6,30.22,West,270,1.7,-999.0,98,-99.99,,,0.01,Acu-Link.com,2013-02-09 17:37:00,
2013-02-09 09:53:00,42.4,41.9,30.24,East,90,1.7,-999.0,98,-99.99,,,0.01,Acu-Link.com,2013-02-09 17:53:00,
2013-02-09 10:08:00,42.3,41.8,30.22,East,90,2.2,-999.0,98,-99.99,,,0.01,Acu-Link.com,2013-02-09 18:08:00,
2013-02-09 10:23:00,42.1,41.6,30.24,West,270,1.7,-999.0,98,-99.99,,,0.01,Acu-Link.com,2013-02-09 18:23:00,
2013-02-09 10:38:00,42.3,41.8,30.22,ENE,67,1.1,-999.0,98,-99.99,,,0.01,Acu-Link.com,2013-02-09 18:38:00,
2013-02-09 10:54:00,42.6,42.1,30.26,ENE,67,0.0,-999.0,98,-99.99,,,0.01,Acu-Link.com,2013-02-09 18:54:00,
2013-02-09 11:09:00,43.3,42.8,30.25,ENE,67,0.0,-999.0,98,-99.99,,,0.01,Acu-Link.com,2013-02-09 19:09:00,
2013-02-09 11:24:00,43.0,42.5,30.23,ENE,67,1.7,-999.0,98,-99.99,,,0.01,Acu-Link.com,2013-02-09 19:24:00,
2013-02-09 11:40:00,43.5,43.0,30.22,West,270,2.7,-999.0,98,-99.99,,,0.01,Acu-Link.com,2013-02-09 19:40:00,
2013-02-09 11:55:00,43.2,42.7,30.23,West,270,1.7,-999.0,98,-99.99,,,0.01,Acu-Link.com,2013-02-09 19:55:00,
2013-02-09 12:10:00,43.3,42.8,30.23,West,270,1.7,-999.0,98,-99.99,,,0.01,Acu-Link.com,2013-02-09 20:10:00,
2013-02-09 12:26:00,44.8,44.3,30.21,East,90,2.2,-999.0,98,-99.99,,,0.01,Acu-Link.com,2013-02-09 20:26:00,
2013-02-09 12:41:00,44.1,43.6,30.21,East,90,3.2,-999.0,98,-99.99,,,0.01,Acu-Link.com,2013-02-09 20:41:00,
2013-02-09 12:56:00,44.2,43.7,30.23,ESE,112,3.7,-999.0,98,-99.99,,,0.01,Acu-Link.com,2013-02-09 20:56:00,
2013-02-09 13:12:00,44.8,44.3,30.21,East,90,2.7,-999.0,98,-99.99,,,0.01,Acu-Link.com,2013-02-09 21:12:00,
2013-02-09 13:27:00,45.1,44.6,30.21,East,90,4.2,-999.0,98,-99.99,,,0.01,Acu-Link.com,2013-02-09 21:27:00,
2013-02-09 13:42:00,45.0,44.5,30.22,ESE,112,2.2,-999.0,98,-99.99,,,0.01,Acu-Link.com,2013-02-09 21:42:00,
2013-02-09 13:57:00,45.5,45.0,30.21,East,90,4.2,-999.0,98,-99.99,,,0.01,Acu-Link.com,2013-02-09 21:57:00,
2013-02-09 14:13:00,46.0,45.5,30.20,East,90,5.8,-999.0,98,-99.99,,,0.01,Acu-Link.com,2013-02-09 22:13:00,
2013-02-09 14:28:00,46.0,45.5,30.21,East,90,6.8,-999.0,98,-99.99,,,0.01,Acu-Link.com,2013-02-09 22:28:00,
2013-02-09 14:43:00,46.0,45.5,30.20,East,90,5.8,-999.0,98,-99.99,,,0.01,Acu-Link.com,2013-02-09 22:43:00,
2013-02-09 14:59:00,45.9,45.4,30.20,East,90,7.3,-999.0,98,-99.99,,,0.01,Acu-Link.com,2013-02-09 22:59:00,
2013-02-09 15:14:00,45.5,45.0,30.22,East,90,7.3,-999.0,98,-99.99,,,0.01,Acu-Link.com,2013-02-09 23:14:00,
2013-02-09 15:29:00,45.7,45.2,30.23,East,90,6.3,-999.0,98,-99.99,,,0.01,Acu-Link.com,2013-02-09 23:29:00,
2013-02-09 15:44:00,45.5,45.0,30.23,East,90,5.8,-999.0,98,-99.99,,,0.01,Acu-Link.com,2013-02-09 23:44:00,
2013-02-09 16:00:00,45.3,44.8,30.22,East,90,6.3,-999.0,98,-99.99,,,0.01,Acu-Link.com,2013-02-10 00:00:00,
2013-02-09 16:15:00,45.1,44.6,30.24,East,90,5.8,-999.0,98,-99.99,,,0.01,Acu-Link.com,2013-02-10 00:15:00,
2013-02-09 16:30:00,45.0,44.5,30.23,East,90,4.7,-999.0,98,-99.99,,,0.01,Acu-Link.com,2013-02-10 00:30:00,
2013-02-09 16:45:00,45.0,44.5,30.23,East,90,3.2,-999.0,98,-99.99,,,0.01,Acu-Link.com,2013-02-10 00:45:00,
2013-02-09 17:00:00,45.1,44.6,30.25,ENE,67,7.3,-999.0,98,-99.99,,,0.01,Acu-Link.com,2013-02-10 01:00:00,
2013-02-09 17:15:00,45.0,44.5,30.24,East,90,4.2,-999.0,98,-99.99,,,0.01,Acu-Link.com,2013-02-10 01:15:00,
2013-02-09 17:31:00,44.6,44.1,30.25,East,90,1.7,-999.0,98,-99.99,,,0.01,Acu-Link.com,2013-02-10 01:31:00,
2013-02-09 17:46:00,44.4,43.9,30.26,ESE,112,1.1,-999.0,98,-99.99,,,0.01,Acu-Link.com,2013-02-10 01:46:00,
2013-02-09 18:01:00,44.2,43.7,30.25,East,90,0.0,-999.0,98,-99.99,,,0.01,Acu-Link.com,2013-02-10 02:01:00,
2013-02-09 18:16:00,44.1,43.6,30.26,East,90,0.0,-999.0,98,-99.99,,,0.01,Acu-Link.com,2013-02-10 02:16:00,
2013-02-09 18:32:00,44.1,43.6,30.25,East,90,0.0,-999.0,98,-99.99,,,0.01,Acu-Link.com,2013-02-10 02:32:00,
2013-02-09 18:47:00,44.1,43.6,30.27,South,180,0.0,-999.0,98,-99.99,,,0.01,Acu-Link.com,2013-02-10 02:47:00,
2013-02-09 19:02:00,44.1,43.6,30.26,North,0,0.0,-999.0,98,-99.99,,,0.01,Acu-Link.com,2013-02-10 03:02:00,
2013-02-09 19:18:00,44.1,43.6,30.25,North,0,0.0,-999.0,98,-99.99,,,0.01,Acu-Link.com,2013-02-10 03:18:00,
2013-02-09 19:33:00,44.1,43.6,30.25,North,0,0.0,-999.0,98,-99.99,,,0.01,Acu-Link.com,2013-02-10 03:33:00,
2013-02-09 19:48:00,44.1,43.6,30.25,North,0,0.0,-999.0,98,-99.99,,,0.01,Acu-Link.com,2013-02-10 03:48:00,
2013-02-09 20:03:00,44.1,43.6,30.26,North,0,0.0,-999.0,98,-99.99,,,0.01,Acu-Link.com,2013-02-10 04:03:00,
2013-02-09 20:19:00,44.2,43.7,30.24,North,0,0.0,-999.0,98,-99.99,,,0.01,Acu-Link.com,2013-02-10 04:19:00,
2013-02-09 20:34:00,44.4,43.9,30.26,East,90,1.1,-999.0,98,-99.99,,,0.01,Acu-Link.com,2013-02-10 04:34:00,
2013-02-09 20:49:00,44.4,43.9,30.27,South,180,1.7,-999.0,98,-99.99,,,0.01,Acu-Link.com,2013-02-10 04:49:00,
2013-02-09 21:05:00,44.4,43.9,30.27,SSW,202,0.0,-999.0,98,-99.99,,,0.01,Acu-Link.com,2013-02-10 05:05:00,
2013-02-09 21:20:00,44.4,43.9,30.30,SSW,202,0.0,-999.0,98,-99.99,,,0.02,Acu-Link.com,2013-02-10 05:20:00,
2013-02-09 21:35:00,44.4,43.9,30.28,SW,225,1.7,-999.0,98,-99.99,,,0.02,Acu-Link.com,2013-02-10 05:35:00,
2013-02-09 21:51:00,44.4,43.9,30.28,South,180,0.0,-999.0,98,-99.99,,,0.02,Acu-Link.com,2013-02-10 05:51:00,
2013-02-09 22:06:00,44.4,43.9,30.28,WSW,247,0.0,-999.0,98,-99.99,,,0.02,Acu-Link.com,2013-02-10 06:06:00,
2013-02-09 22:21:00,44.4,43.9,30.28,SSW,202,0.0,-999.0,98,-99.99,,,0.02,Acu-Link.com,2013-02-10 06:21:00,
2013-02-09 22:36:00,44.4,43.9,30.29,SSW,202,0.0,-999.0,98,-99.99,,,0.02,Acu-Link.com,2013-02-10 06:36:00,
2013-02-09 22:52:00,44.4,43.9,30.30,SSW,202,0.0,-999.0,98,-99.99,,,0.02,Acu-Link.com,2013-02-10 06:52:00,
2013-02-09 23:07:00,44.4,43.9,30.29,South,180,0.0,-999.0,98,-99.99,,,0.02,Acu-Link.com,2013-02-10 07:07:00,
2013-02-09 23:22:00,44.4,43.9,30.29,South,180,0.0,-999.0,98,-99.99,,,0.02,Acu-Link.com,2013-02-10 07:22:00,
2013-02-09 23:38:00,44.2,43.7,30.29,SSW,202,0.0,-999.0,98,-99.99,,,0.02,Acu-Link.com,2013-02-10 07:38:00,
2013-02-09 23:53:00,44.2,43.7,30.30,SW,225,0.0,-999.0,98,-99.99,,,0.02,Acu-Link.com,2013-02-10 07:53:00,